Meteo Giornale » Osservazioni meteo Italia » Pratica Di Mare

ore: 03:55 - Osservazioni Meteo Pratica Di Mare
Lat. 41° 39' N Lon. 12° 27' E Alt. 6 metri s.l.m.

molto_nuvoloso Europe/Rome

14 °C

Molto Nuvoloso

Temp. 24 Ore

10 °C

17 °C

Est/Nord-Est

9.3 Km/h

Dew point 13 °C

Umidità 93 %

Visibilità  10 Km

Il sole sorge alle ore 07:21

Il sole tramonta alle ore 16:41

Data e Ora Cielo e Fenomeni T °C DP °C Um. % Pres. hPa Vis. km Vento km/h
Oggi h: 03:55 molto_nuvoloso Molto Nuvoloso 14 13 93 1021 10 E/NE 9.3
Oggi h: 02:55 nuvoloso Nuvoloso 13 12 93 1021 10 E/NE 7.4
Oggi h: 01:55 molto_nuvoloso Molto Nuvoloso 14 12 87 1021 10 E 13
Oggi h: 00:55 molto_nuvoloso Molto Nuvoloso 13 12 93 1021 10 E 7.4
Ieri h: 23:55 molto_nuvoloso Molto Nuvoloso 13 12 93 1021 10 E/SE 9.3
Ieri h: 22:55 coperto_pioggia Pioggia Debole 13 12 93 1021 10 N 3.7
Ieri h: 21:55 molto_nuvoloso Molto Nuvoloso 14 12 87 1021 10 E 9.3
Ieri h: 20:55 poco_nuvoloso Poco Nuvoloso 14 12 87 1021 10 E 11.1
Ieri h: 19:55 poco_nuvoloso Poco Nuvoloso 14 12 87 1021 10 N 5.5
Ieri h: 18:55 sereno Sereno 15 14 93 1021 10 E 9.3
Ieri h: 17:55 sereno Sereno 15 14 93 1021 10 E 9.3
Ieri h: 16:55 poco_nuvoloso Poco Nuvoloso 16 14 87 1021 10 N 3.7
Ieri h: 15:55 poco_nuvoloso Poco Nuvoloso 16 14 87 1021 10 S 7.4
Ieri h: 14:55 poco_nuvoloso Poco Nuvoloso 16 14 87 1022 10 S 9.3
Ieri h: 13:55 poco_nuvoloso Poco Nuvoloso 17 14 82 1022 10 S 11.1
Ieri h: 12:55 sereno Sereno 17 14 82 1022 10 S/SE 11.1
Ieri h: 11:55 nuvoloso Nuvoloso 16 11 72 1023 10 E/SE 9.3
Ieri h: 10:55 nuvoloso Nuvoloso 15 10 72 1023 10 E/SE 9.3
Ieri h: 09:55 nuvoloso Nuvoloso 13 10 81 1023 10 NE 7.4
Ieri h: 08:55 nuvoloso Nuvoloso 10 8 87 1023 10 N/NE 16.7
Ieri h: 07:55 nuvoloso Nuvoloso 10 9 93 1023 10 N/NE 14.8
Ieri h: 06:55 nuvoloso Nuvoloso 10 9 93 1023 10 N/NE 14.8
Ieri h: 05:55 nuvoloso Nuvoloso 10 8 87 1022 10 NE 14.8
Ieri h: 04:55 nuvoloso Nuvoloso 10 8 87 1023 10 NE 11.1